This demonstration page uses our WeatherBlox Daily Observations layout. Learn more.

Left ArrowRight Arrow

Hourly Observations for February 12, 2017

Temp ( °F °C ) Dew Point ( °F °C ) Humidity (%) Winds ( mph kmh ) Pressure ( in mb ) Visibility ( mi km ) Precip ( " mm )
12:53 am 00:53 Clear 56 13.3 34 1.1 44 44 ENE 8 13 29.90 1013 10 16 0.00 0.00
1:53 am 01:53 Clear 53 11.7 37 2.8 55 55 NNE 8 13 29.91 1013 10 16 0.00 0.00
2:53 am 02:53 Clear 50 10 35 1.7 57 57 N 8 13 29.92 1013 10 16 0.00 0.00
3:53 am 03:53 Clear 49 9.4 34 1.1 56 56 N 7 11 29.93 1014 10 16 0.00 0.00
4:53 am 04:53 Clear 50 10 37 2.8 61 61 N 7 11 29.93 1014 10 16 0.00 0.00
5:53 am 05:53 Clear 51 10.6 40 4.4 66 66 N 8 13 29.95 1014 10 16 0.00 0.00
6:53 am 06:53 Clear 57 13.9 35 1.7 44 44 NNE 24 39 30.05 1018 10 16 0.00 0.00
7:53 am 07:53 Mostly Sunny 56 13.3 36 2.2 47 47 NNE 22 35 30.13 1020 10 16 0.00 0.00
8:53 am 08:53 Sunny 54 12.2 34 1.1 47 47 NE 28 44 30.19 1022 10 16 0.00 0.00
9:53 am 09:53 Sunny 56 13.3 32 0 40 40 NE 29 46 30.24 1024 10 16 0.00 0.00
10:53 am 10:53 Sunny 58 14.4 33 0.6 39 39 NNE 23 37 30.31 1027 10 16 0.00 0.00
11:53 am 11:53 Sunny 60 15.6 33 0.6 36 36 NNE 23 37 30.30 1026 10 16 0.00 0.00
12:53 pm 12:53 Partly Cloudy 61 16.1 32 0 34 34 NNE 21 33 30.28 1025 9 14 0.00 0.00
1:53 pm 13:53 Mostly Cloudy 61 16.1 32 0 34 34 NE 17 28 30.25 1024 8 13 0.00 0.00
2:07 pm 14:07 Mostly Cloudy 61 16.1 32 0 34 34 NNE 20 31 30.21 1023 8 13 0.00 0.00
2:53 pm 14:53 Mostly Cloudy 61 16.1 31 -0.6 32 32 NNE 20 31 30.22 1024 10 16 0.00 0.00
3:53 pm 15:53 Cloudy 60 15.6 32 0 35 35 ENE 20 31 30.21 1023 10 16 0.00 0.00
4:53 pm 16:53 Cloudy 60 15.6 33 0.6 36 36 NE 17 28 30.20 1023 10 16 0.00 0.00
5:53 pm 17:53 Cloudy 60 15.6 33 0.6 36 36 ENE 16 26 30.21 1023 10 16 0.00 0.00
6:53 pm 18:53 Cloudy 58 14.4 31 -0.6 36 36 ENE 18 30 30.22 1023 10 16 0.00 0.00
7:53 pm 19:53 Cloudy 57 13.9 28 -2.2 33 33 ENE 21 33 30.22 1023 10 16 0.00 0.00
8:53 pm 20:53 Cloudy 56 13.3 25 -3.9 30 30 ENE 17 28 30.21 1023 10 16 0.00 0.00
9:53 pm 21:53 Cloudy 54 12.2 23 -5 30 30 E 15 24 30.22 1024 10 16 0.00 0.00
10:53 pm 22:53 Cloudy 53 11.7 23 -5 31 31 ENE 17 28 30.20 1023 10 16 0.00 0.00
11:53 pm 23:53 Cloudy 52 11.1 22 -5.6 31 31 ENE 21 33 30.22 1023 10 16 0.00 0.00

Powered by AerisWeather